Tracking 35334 objects as of 13-Sep-2026
HD Live streaming from Space Station
objects crossing your sky now

DELTA 1 DEB


DELTA 1 DEB is no longer on orbit


NORAD ID: 7886
Int'l Code: 1972-058BC
Launch date: July 23, 1972
Source: United States (US)
Launch site: AIR FORCE WESTERN TEST RANGE (AFWTR)
Decay date: 1980-05-03

Note: This is SATELLITE DEBRIS
Your satellite tracking list
Your tracking list is empty




NASA's NSSDC Master Catalog

Two Line Element Set (TLE):
1 07886U 72058 BC 80122.06164446  .03548352 +00000-0 +25876-1 0  9994
2 07886 098.1409 152.0949 0019349 239.4093 120.5260 15.72948490260618
Source of the keplerian elements: AFSPC